Location: Reutlingen
(48.4911°N, 9.2587°E)
Time: 07:24:33
(UTC+02:00)

ISS - Visible Passes

Search period start: 29 March 2017 00:00
Search period end: 08 April 2017 00:00
Orbit: 399 x 409 km, 51.6° (Epoch: 29 March)

Date Brightness Start Highest point End Pass type
(mag) Time Alt. Az. Time Alt. Az. Time Alt. Az.
29 Mar -4.0 21:41:53 10° WSW 21:45:05 74° SSE 21:45:05 74° SSE visible
30 Mar -3.5 20:49:40 10° SW 20:52:49 47° SSE 20:55:19 15° ENE visible
30 Mar -2.0 22:26:04 10° W 22:28:00 31° WNW 22:28:00 31° WNW visible
31 Mar -3.6 21:33:35 10° WSW 21:36:50 69° NNW 21:38:02 35° ENE visible
31 Mar -0.5 23:10:24 10° WNW 23:10:43 12° WNW 23:10:43 12° WNW visible
01 Apr -3.9 20:41:09 10° WSW 20:44:24 85° SSE 20:47:42 10° ENE visible
01 Apr -2.7 22:17:53 10° W 22:20:37 42° NNW 22:20:37 42° NNW visible
02 Apr -3.1 21:25:21 10° W 21:28:33 51° N 21:30:24 22° ENE visible
02 Apr -1.0 23:02:06 10° WNW 23:03:03 17° WNW 23:03:03 17° WNW visible
03 Apr -3.4 20:32:49 10° W 20:36:03 63° NNW 20:39:19 10° ENE visible
03 Apr -3.0 22:09:37 10° WNW 22:12:46 47° N 22:12:46 47° N visible
04 Apr -3.0 21:17:06 10° WNW 21:20:16 46° N 21:22:25 18° ENE visible
04 Apr -1.4 22:53:42 10° WNW 22:55:04 23° WNW 22:55:04 23° WNW visible
05 Apr -3.5 22:01:15 10° WNW 22:04:28 57° NNE 22:04:40 56° NNE visible
06 Apr -3.1 21:08:44 10° WNW 21:11:55 49° N 21:14:15 17° ENE visible
06 Apr -1.8 22:45:15 10° WNW 22:46:54 27° WNW 22:46:54 27° WNW visible
07 Apr -3.9 21:52:45 10° WNW 21:56:02 84° NNE 21:56:28 64° E visible
